TimeAKST,TemperatureF,Dew PointF,Humidity,Sea Level PressureIn,VisibilityMPH,Wind Direction,Wind SpeedMPH,Gust SpeedMPH,PrecipitationIn,Events,Conditions,WindDirDegrees,DateUTC
12:16 AM,35.6,33.8,93,29.71,10.0,WSW,3.5,-,N/A,,Scattered Clouds,240,2011-11-07 09:16:00
12:36 AM,35.6,33.8,93,29.71,10.0,Calm,Calm,-,N/A,,Overcast,0,2011-11-07 09:36:00
12:56 AM,33.8,32.0,93,29.71,10.0,Calm,Calm,-,N/A,,Mostly Cloudy,0,2011-11-07 09:56:00
1:16 AM,33.8,32.0,93,29.71,10.0,Calm,Calm,-,N/A,,Overcast,0,2011-11-07 10:16:00
1:36 AM,33.8,32.0,93,29.71,10.0,Calm,Calm,-,N/A,,Overcast,0,2011-11-07 10:36:00
1:56 AM,35.6,33.8,93,29.70,10.0,WNW,3.5,-,N/A,,Overcast,300,2011-11-07 10:56:00
2:16 AM,33.8,33.8,100,29.70,10.0,Calm,Calm,-,N/A,,Mostly Cloudy,0,2011-11-07 11:16:00
2:36 AM,35.6,33.8,93,29.70,10.0,Calm,Calm,-,N/A,,Mostly Cloudy,0,2011-11-07 11:36:00
2:56 AM,33.8,32.0,93,29.70,10.0,SSW,4.6,-,N/A,,Mostly Cloudy,200,2011-11-07 11:56:00
3:16 AM,35.6,35.6,100,29.70,8.0,SW,3.5,-,N/A,,Overcast,230,2011-11-07 12:16:00
3:36 AM,35.6,33.8,93,29.71,9.0,Calm,Calm,-,N/A,,Overcast,0,2011-11-07 12:36:00
3:56 AM,35.6,35.6,100,29.71,10.0,Calm,Calm,-,N/A,,Overcast,0,2011-11-07 12:56:00
4:16 AM,35.6,33.8,93,29.71,10.0,North,5.8,-,N/A,,Mostly Cloudy,360,2011-11-07 13:16:00
4:36 AM,35.6,33.8,93,29.71,10.0,NW,3.5,-,N/A,,Overcast,320,2011-11-07 13:36:00
4:56 AM,35.6,33.8,93,29.71,10.0,Calm,Calm,-,N/A,,Mostly Cloudy,0,2011-11-07 13:56:00
5:16 AM,35.6,33.8,93,29.72,10.0,Calm,Calm,-,N/A,,Overcast,0,2011-11-07 14:16:00
5:36 AM,35.6,33.8,93,29.72,10.0,Calm,Calm,-,N/A,,Overcast,0,2011-11-07 14:36:00
5:56 AM,35.6,33.8,93,29.72,10.0,Calm,Calm,-,N/A,,Overcast,0,2011-11-07 14:56:00
6:16 AM,35.6,33.8,93,29.73,10.0,Calm,Calm,-,N/A,,Overcast,0,2011-11-07 15:16:00
6:36 AM,35.6,35.6,100,29.73,10.0,Calm,Calm,-,N/A,,Overcast,0,2011-11-07 15:36:00
6:56 AM,37.4,33.8,87,29.73,10.0,NNW,5.8,-,N/A,,Overcast,330,2011-11-07 15:56:00
7:16 AM,37.4,35.6,93,29.74,10.0,Calm,Calm,-,N/A,,Overcast,0,2011-11-07 16:16:00
7:36 AM,37.4,35.6,93,29.73,10.0,NE,3.5,-,N/A,,Mostly Cloudy,40,2011-11-07 16:36:00
7:56 AM,37.4,35.6,93,29.74,10.0,NNW,3.5,-,N/A,,Overcast,340,2011-11-07 16:56:00
8:16 AM,35.6,33.8,93,29.75,10.0,Calm,Calm,-,N/A,,Overcast,0,2011-11-07 17:16:00
8:36 AM,37.4,35.6,93,29.75,10.0,Calm,Calm,-,N/A,,Overcast,0,2011-11-07 17:36:00
8:56 AM,37.4,35.6,93,29.76,10.0,Calm,Calm,-,N/A,,Overcast,0,2011-11-07 17:56:00
9:16 AM,37.4,35.6,93,29.76,10.0,NE,3.5,-,N/A,,Overcast,40,2011-11-07 18:16:00
9:36 AM,37.4,35.6,93,29.77,10.0,South,8.1,-,N/A,,Overcast,190,2011-11-07 18:36:00
9:56 AM,39.2,35.6,87,29.77,10.0,Calm,Calm,-,N/A,,Mostly Cloudy,0,2011-11-07 18:56:00
10:16 AM,39.2,33.8,81,29.78,10.0,South,8.1,-,N/A,,Mostly Cloudy,170,2011-11-07 19:16:00
10:36 AM,39.2,35.6,87,29.79,10.0,Calm,Calm,-,N/A,,Mostly Cloudy,0,2011-11-07 19:36:00
10:56 AM,39.2,33.8,81,29.79,10.0,South,6.9,-,N/A,,Overcast,190,2011-11-07 19:56:00
11:16 AM,39.2,35.6,87,29.79,10.0,SSE,8.1,-,N/A,,Overcast,150,2011-11-07 20:16:00
11:36 AM,39.2,33.8,81,29.79,10.0,SSW,5.8,-,N/A,,Overcast,200,2011-11-07 20:36:00
11:56 AM,39.2,33.8,81,29.80,10.0,South,8.1,-,N/A,,Overcast,190,2011-11-07 20:56:00
12:16 PM,39.2,33.8,81,29.80,10.0,South,4.6,-,N/A,,Overcast,180,2011-11-07 21:16:00
12:36 PM,39.2,33.8,81,29.80,10.0,South,8.1,-,N/A,,Overcast,180,2011-11-07 21:36:00
1:16 PM,39.2,35.6,87,29.80,10.0,South,4.6,-,N/A,,Overcast,170,2011-11-07 22:16:00
1:36 PM,39.2,33.8,81,29.80,10.0,Calm,Calm,-,N/A,,Overcast,0,2011-11-07 22:36:00
1:56 PM,39.2,35.6,87,29.81,10.0,WSW,4.6,-,N/A,,Overcast,240,2011-11-07 22:56:00
2:16 PM,37.4,33.8,87,29.82,5.0,SW,6.9,-,N/A,,Overcast,220,2011-11-07 23:16:00
2:36 PM,37.4,35.6,93,29.82,5.0,Calm,Calm,-,N/A,,Overcast,0,2011-11-07 23:36:00
2:56 PM,37.4,35.6,93,29.82,10.0,ESE,6.9,-,N/A,,Mostly Cloudy,120,2011-11-07 23:56:00
3:16 PM,37.4,33.8,87,29.82,10.0,Calm,Calm,-,N/A,,Mostly Cloudy,0,2011-11-08 00:16:00
3:36 PM,37.4,35.6,93,29.84,10.0,Calm,Calm,-,N/A,,Mostly Cloudy,0,2011-11-08 00:36:00
3:56 PM,37.4,33.8,87,29.84,3.0,SSE,4.6,-,N/A,,Overcast,150,2011-11-08 00:56:00
4:16 PM,37.4,33.8,87,29.85,3.0,NW,4.6,-,N/A,,Overcast,310,2011-11-08 01:16:00
4:36 PM,35.6,33.8,93,29.85,3.0,Calm,Calm,-,N/A,,Overcast,0,2011-11-08 01:36:00
4:56 PM,37.4,33.8,87,29.85,5.0,Calm,Calm,-,N/A,,Overcast,0,2011-11-08 01:56:00
5:16 PM,37.4,33.8,87,29.86,5.0,Calm,Calm,-,N/A,,Overcast,0,2011-11-08 02:16:00
5:36 PM,37.4,33.8,87,29.86,5.0,Calm,Calm,-,N/A,,Overcast,0,2011-11-08 02:36:00
5:56 PM,37.4,33.8,87,29.87,10.0,Calm,Calm,-,N/A,,Overcast,0,2011-11-08 02:56:00
6:16 PM,35.6,35.6,100,29.87,10.0,Calm,Calm,-,N/A,,Overcast,0,2011-11-08 03:16:00
6:36 PM,35.6,35.6,100,29.88,10.0,Calm,Calm,-,N/A,,Overcast,0,2011-11-08 03:36:00
6:56 PM,37.4,33.8,87,29.88,5.0,Calm,Calm,-,N/A,,Overcast,0,2011-11-08 03:56:00
7:16 PM,37.4,33.8,87,29.89,5.0,Calm,Calm,-,N/A,,Overcast,0,2011-11-08 04:16:00
7:36 PM,37.4,33.8,87,29.90,5.0,Calm,Calm,-,N/A,,Overcast,0,2011-11-08 04:36:00
7:56 PM,37.4,33.8,87,29.90,10.0,Calm,Calm,-,N/A,,Mostly Cloudy,0,2011-11-08 04:56:00
8:16 PM,37.4,35.6,93,29.91,10.0,Calm,Calm,-,N/A,,Mostly Cloudy,0,2011-11-08 05:16:00
8:36 PM,37.4,33.8,87,29.92,10.0,Calm,Calm,-,N/A,,Mostly Cloudy,0,2011-11-08 05:36:00
8:56 PM,37.4,33.8,87,29.92,10.0,Calm,Calm,-,N/A,,Mostly Cloudy,0,2011-11-08 05:56:00
9:16 PM,37.4,33.8,87,29.93,10.0,Calm,Calm,-,N/A,,Mostly Cloudy,0,2011-11-08 06:16:00
9:36 PM,37.4,33.8,87,29.93,10.0,Calm,Calm,-,N/A,,Mostly Cloudy,0,2011-11-08 06:36:00
9:56 PM,37.4,33.8,87,29.94,10.0,Calm,Calm,-,N/A,,Mostly Cloudy,0,2011-11-08 06:56:00
10:16 PM,37.4,33.8,87,29.95,10.0,North,4.6,-,N/A,,Mostly Cloudy,360,2011-11-08 07:16:00
10:36 PM,35.6,32.0,87,29.95,10.0,Calm,Calm,-,N/A,,Overcast,0,2011-11-08 07:36:00
10:56 PM,37.4,33.8,87,29.96,10.0,Calm,Calm,-,N/A,,Overcast,0,2011-11-08 07:56:00
11:16 PM,37.4,33.8,87,29.97,10.0,Calm,Calm,-,N/A,,Mostly Cloudy,0,2011-11-08 08:16:00
11:56 PM,35.6,33.8,93,29.98,10.0,South,3.5,-,N/A,,Overcast,180,2011-11-08 08:56:00